FW7044 Weather Reports


Display with metric or nautical units.
time (UTC)temp
F
wind
direction
speed
MPH
gust
MPH
rain 1hr
in
rain 24hr
in
rain mn
in
humidity
%
barometer
mb
20260905000134 82 327 0.0 0.0 0.00 0.04 0.04 95 1015.7
20260904235634 82 155 2.0 3.0 0.17 0.04 0.04 94 1015.8
20260904235133 84 127 3.0 3.0 0.17 0.04 0.04 91 1015.7
20260904234628 85 234 5.0 6.0 0.00 0.01 0.01 85 1015.9
20260904234124 85 212 2.0 3.0 0.00 0.01 0.01 84 1015.8
20260904233620 86 205 5.0 7.0 0.00 0.01 0.01 84 1015.8
20260904233116 88 249 0.0 0.0 0.00 0.01 0.01 89 1015.5
20260904232612 88 249 0.0 0.0 0.00 0.01 0.01 88 1015.3
20260904232108 88 248 0.0 0.0 0.00 0.01 0.01 87 1015.3
20260904231603 89 239 1.0 1.0 0.00 0.01 0.01 86 1015.2
20260904231058 89 277 0.0 0.0 0.00 0.01 0.01 86 1015.1
20260904230557 89 304 0.0 0.0 0.00 0.01 0.01 85 1015.3
20260904230053 89 309 0.0 0.0 0.00 0.01 0.01 84 1015.2
20260904225550 89 310 0.0 0.0 0.00 0.01 0.01 85 1015.1
20260904225045 90 307 0.0 0.0 0.00 0.01 0.01 84 1015.0
20260904224540 89 308 0.0 0.0 0.00 0.01 0.01 83 1015.1
20260904224040 90 302 0.0 0.0 0.00 0.01 0.01 83 1014.9
20260904223539 90 299 0.0 0.0 0.00 0.01 0.01 82 1014.8
20260904223035 90 292 0.0 0.0 0.00 0.01 0.01 81 1014.7
20260904222530 90 298 0.0 0.0 0.00 0.01 0.01 82 1014.9
20260904222026 89 297 0.0 0.0 0.00 0.01 0.01 82 1014.7
20260904221520 89 272 0.0 0.0 0.00 0.01 0.01 81 1014.8
20260904221015 90 211 0.0 1.0 0.00 0.01 0.01 80 1014.6
20260904220515 90 260 1.0 1.0 0.00 0.01 0.01 81 1014.7
20260904220011 91 264 1.0 1.0 0.00 0.01 0.01 80 1014.3
20260904215505 91 113 7.0 8.0 0.00 0.01 0.01 80 1014.3
20260904215001 91 92 3.0 8.0 0.00 0.01 0.01 79 1014.5
20260904214456 91 151 2.0 5.0 0.00 0.01 0.01 80 1014.6
20260904213950 91 112 1.0 1.0 0.00 0.01 0.01 80 1014.4
20260904213449 91 136 1.0 2.0 0.00 0.01 0.01 80 1014.7
20260904212946 92 147 5.0 8.0 0.00 0.01 0.01 79 1014.3
20260904212445 92 151 2.0 3.0 0.00 0.01 0.01 79 1014.9
20260904211940 92 205 4.0 5.0 0.00 0.01 0.01 78 1014.8
20260904211440 92 157 2.0 3.0 0.00 0.01 0.01 78 1014.7
20260904210937 93 198 3.0 5.0 0.00 0.01 0.01 78 1014.8
20260904210435 93 82 6.0 7.0 0.00 0.01 0.01 76 1015.1
20260904205931 93 104 8.0 9.0 0.00 0.01 0.01 73 1015.0
20260904205426 94 95 6.0 7.0 0.00 0.01 0.01 73 1014.9
20260904204924 95 97 6.0 9.0 0.00 0.01 0.01 72 1015.0
20260904204419 96 107 3.0 7.0 0.00 0.01 0.01 71 1014.6
20260904203915 96 129 2.0 3.0 0.00 0.01 0.01 71 1014.6
20260904203412 95 195 4.0 7.0 0.00 0.01 0.01 71 1015.0
20260904202906 96 127 5.0 8.0 0.00 0.01 0.01 71 1014.9
20260904202403 95 106 5.0 5.0 0.00 0.01 0.01 70 1014.8
20260904201858 96 206 6.0 7.0 0.00 0.01 0.01 70 1014.8
20260904201354 96 144 4.0 5.0 0.00 0.01 0.01 69 1014.6
20260904200849 96 154 8.0 10.0 0.00 0.01 0.01 69 1014.9
20260904200347 95 148 4.0 5.0 0.00 0.01 0.01 71 1014.8
20260904195842 96 201 3.0 5.0 0.00 0.01 0.01 72 1014.8
20260904195340 94 214 6.0 9.0 0.00 0.01 0.01 72 1015.1
20260904194835 95 73 9.0 11.0 0.00 0.01 0.01 71 1015.2
20260904194335 97 166 5.0 7.0 0.00 0.01 0.01 70 1014.9
20260904193830 97 178 3.0 6.0 0.00 0.01 0.01 68 1015.1
20260904193325 96 116 4.0 5.0 0.00 0.01 0.01 71 1015.4
20260904192820 97 208 6.0 8.0 0.00 0.01 0.01 69 1015.4
20260904192316 96 110 10.0 15.0 0.00 0.01 0.01 69 1015.7
20260904191813 96 216 4.0 6.0 0.00 0.01 0.01 71 1015.6
20260904191309 96 202 4.0 6.0 0.00 0.01 0.01 72 1015.7
20260904190805 95 138 5.0 6.0 0.00 0.01 0.01 74 1015.3
20260904190300 95 143 5.0 7.0 0.00 0.01 0.01 76 1015.7
20260904185756 95 209 3.0 5.0 0.00 0.01 0.01 75 1015.7
20260904185252 99 109 3.0 5.0 0.00 0.01 0.01 67 1015.5
20260904184751 99 139 5.0 6.0 0.00 0.01 0.01 59 1015.6
20260904184246 99 178 3.0 5.0 0.00 0.01 0.01 58 1015.8
20260904183742 98 197 3.0 3.0 0.00 0.01 0.01 57 1015.7
20260904183236 99 161 3.0 5.0 0.00 0.01 0.01 60 1015.9
20260904182732 97 144 1.0 3.0 0.00 0.01 0.01 60 1015.9
20260904182227 99 304 1.0 2.0 0.00 0.01 0.01 61 1016.1
20260904181722 99 149 1.0 2.0 0.00 0.01 0.01 61 1016.0
20260904181222 98 177 3.0 3.0 0.00 0.01 0.01 63 1016.2
20260904180718 97 233 1.0 1.0 0.00 0.01 0.01 65 1016.2
20260904180213 98 112 5.0 6.0 0.00 0.01 0.01 63 1016.0
20260904175712 98 207 3.0 5.0 0.00 0.01 0.01 60 1016.4
20260904175210 98 221 3.0 3.0 0.00 0.01 0.01 64 1016.5
20260904174705 99 238 2.0 3.0 0.00 0.01 0.01 60 1016.4
20260904174202 97 246 1.0 2.0 0.00 0.01 0.01 63 1016.6
20260904173656 99 239 3.0 5.0 0.00 0.01 0.01 61 1016.7
20260904173151 98 333 2.0 2.0 0.00 0.01 0.01 62 1016.6
20260904172648 98 242 1.0 1.0 0.00 0.01 0.01 64 1016.5
20260904172147 99 251 2.0 3.0 0.00 0.01 0.01 64 1016.8
20260904171643 98 176 3.0 5.0 0.00 0.01 0.01 63 1016.7
20260904171138 96 224 3.0 3.0 0.00 0.01 0.01 66 1017.0
20260904170634 96 199 2.0 2.0 0.00 0.01 0.01 67 1016.7
20260904170129 97 221 5.0 7.0 0.00 0.01 0.01 71 1017.0
20260904165627 97 213 4.0 6.0 0.00 0.01 0.01 66 1016.9
20260904165121 97 233 2.0 2.0 0.00 0.01 0.01 66 1017.1
20260904164622 95 209 3.0 6.0 0.00 0.01 0.01 73 1017.0
20260904164117 95 212 3.0 3.0 0.00 0.01 0.01 71 1017.2
20260904163612 97 247 4.0 6.0 0.00 0.01 0.01 67 1016.9
20260904163108 96 191 3.0 5.0 0.00 0.01 0.01 69 1017.2
20260904162603 98 263 3.0 5.0 0.00 0.01 0.01 68 1017.1
20260904162058 98 212 2.0 2.0 0.00 0.01 0.01 68 1017.1
20260904161558 96 262 3.0 3.0 0.00 0.01 0.01 67 1017.2
20260904161047 95 230 3.0 3.0 0.00 0.01 0.01 68 1017.5
20260904160543 96 279 5.0 6.0 0.00 0.01 0.01 68 1017.6
20260904160039 96 213 4.0 5.0 0.00 0.01 0.01 72 1017.5
20260904155538 96 211 4.0 8.0 0.00 0.01 0.01 71 1017.6
20260904155037 95 216 3.0 3.0 0.00 0.01 0.01 73 1017.7
20260904154531 95 261 3.0 3.0 0.00 0.01 0.01 73 1017.5
20260904154027 94 229 2.0 5.0 0.00 0.01 0.01 74 1017.4
20260904153526 95 224 7.0 9.0 0.00 0.01 0.01 73 1017.8
20260904153023 95 191 4.0 5.0 0.00 0.01 0.01 76 1017.6
20260904152519 94 237 1.0 2.0 0.00 0.01 0.01 77 1017.7
20260904152014 94 285 1.0 2.0 0.00 0.01 0.01 76 1017.6
20260904151509 94 249 4.0 5.0 0.00 0.01 0.01 76 1017.4
20260904151008 93 314 0.0 0.0 0.00 0.01 0.01 77 1017.4
20260904150457 93 224 3.0 3.0 0.00 0.01 0.01 79 1017.6
20260904145956 93 267 1.0 1.0 0.00 0.01 0.01 80 1017.6
20260904145452 94 264 1.0 1.0 0.00 0.01 0.01 76 1017.4
20260904144947 93 232 0.0 1.0 0.00 0.01 0.01 80 1017.3
20260904144443 93 212 2.0 2.0 0.00 0.01 0.01 80 1017.4
20260904143938 93 201 0.0 1.0 0.00 0.01 0.01 83 1017.6
20260904143434 93 289 3.0 5.0 0.00 0.01 0.01 83 1017.3
20260904142931 94 273 1.0 1.0 0.00 0.01 0.01 82 1017.2
20260904142426 92 213 2.0 3.0 0.00 0.01 0.01 84 1017.1
20260904141921 91 205 3.0 5.0 0.00 0.01 0.01 85 1017.2
20260904141416 91 277 3.0 5.0 0.00 0.01 0.01 83 1017.2
20260904140913 91 290 1.0 1.0 0.00 0.01 0.01 85 1017.0
20260904140412 91 296 0.0 0.0 0.00 0.01 0.01 85 1016.8
20260904135912 91 213 6.0 7.0 0.00 0.01 0.01 85 1017.0
20260904135411 90 205 1.0 2.0 0.00 0.01 0.01 87 1016.8
20260904134908 90 236 3.0 5.0 0.00 0.01 0.01 87 1017.0
20260904134407 90 262 1.0 1.0 0.00 0.01 0.01 87 1016.8
20260904133902 90 254 1.0 2.0 0.00 0.01 0.01 88 1016.9
20260904133357 89 266 0.0 1.0 0.00 0.01 0.01 88 1017.1
20260904132853 89 236 1.0 2.0 0.00 0.01 0.01 89 1016.8
20260904132348 90 232 2.0 5.0 0.00 0.01 0.01 88 1016.9
20260904131847 89 255 0.0 1.0 0.00 0.01 0.01 91 1017.0
20260904131343 88 202 0.0 0.0 0.00 0.01 0.01 91 1016.7
20260904130838 88 203 1.0 2.0 0.00 0.01 0.01 91 1016.8
20260904130337 88 222 3.0 5.0 0.00 0.01 0.01 91 1016.9
20260904125832 87 307 0.0 1.0 0.00 0.01 0.01 93 1016.9
20260904125329 86 237 1.0 1.0 0.00 0.01 0.01 94 1016.7
20260904124827 86 293 0.0 0.0 0.00 0.01 0.01 95 1016.7
20260904124324 85 315 0.0 0.0 0.00 0.01 0.01 97 1016.5
20260904123824 84 249 1.0 1.0 0.00 0.01 0.01 99 1016.5
20260904123319 83 259 0.0 0.0 0.00 0.01 0.01 99 1016.4
20260904122814 83 278 0.0 0.0 0.00 0.01 0.01 99 1016.3
20260904122309 83 271 0.0 1.0 0.00 0.01 0.01 99 1016.4
20260904121804 82 195 2.0 2.0 0.00 0.01 0.01 99 1016.5
20260904121300 82 234 0.0 1.0 0.00 0.01 0.01 99 1016.5
20260904120756 82 228 0.0 1.0 0.00 0.01 0.01 99 1016.3
20260904120251 82 283 0.0 0.0 0.00 0.01 0.01 99 1016.4
20260904115747 81 222 0.0 0.0 0.00 0.01 0.01 99 1016.3
20260904115242 81 234 1.0 1.0 0.00 0.01 0.01 99 1016.1
20260904114737 81 242 1.0 1.0 0.00 0.01 0.01 99 1016.1
20260904114237 80 271 0.0 0.0 0.00 0.01 0.01 99 1015.9
20260904113731 80 278 0.0 0.0 0.00 0.01 0.01 99 1016.0
20260904113230 80 300 0.0 0.0 0.00 0.01 0.01 99 1016.2
20260904112726 80 279 0.0 0.0 0.00 0.01 0.01 99 1015.7
20260904112221 79 302 0.0 0.0 0.00 0.01 0.01 99 1015.8
20260904111716 79 275 0.0 0.0 0.00 0.01 0.01 99 1015.8
20260904111212 79 282 0.0 0.0 0.00 0.01 0.01 99 1015.7
20260904110708 79 282 0.0 0.0 0.00 0.01 0.01 99 1015.9
20260904110207 79 286 0.0 0.0 0.00 0.01 0.01 99 1015.9
20260904105702 79 291 0.0 0.0 0.00 0.01 0.01 99 1015.6
20260904105156 79 290 0.0 0.0 0.07 0.01 0.01 99 1015.5
20260904104652 79 290 0.0 0.0 0.07 0.01 0.01 99 1015.4
20260904104147 79 291 0.0 0.0 0.07 0.01 0.01 99 1015.6
20260904103644 79 289 0.0 0.0 0.00 0.00 0.00 99 1015.6
20260904103139 80 318 0.0 0.0 0.00 0.00 0.00 99 1015.6
20260904102635 79 318 0.0 0.0 0.00 0.00 0.00 99 1015.4
20260904102129 80 319 0.0 0.0 0.00 0.00 0.00 99 1015.5
20260904101626 80 294 0.0 0.0 0.00 0.00 0.00 99 1015.4
20260904101116 79 302 0.0 0.0 0.00 0.00 0.00 99 1015.2
20260904100612 80 312 0.0 0.0 0.00 0.00 0.00 99 1015.1
20260904100107 80 285 0.0 0.0 0.00 0.00 0.00 99 1015.3
20260904095601 79 285 0.0 0.0 0.00 0.00 0.00 99 1015.1
20260904095057 79 284 0.0 0.0 0.00 0.00 0.00 99 1015.0
20260904094557 79 297 0.0 0.0 0.00 0.00 0.00 99 1015.0
20260904094052 79 296 0.0 0.0 0.00 0.00 0.00 99 1014.9
20260904093549 79 296 0.0 0.0 0.00 0.00 0.00 99 1014.9
20260904093049 79 296 0.0 0.0 0.00 0.00 0.00 99 1015.0
20260904092544 79 296 0.0 0.0 0.00 0.00 0.00 99 1015.0
20260904092041 79 296 0.0 0.0 0.00 0.00 0.00 99 1014.8
20260904091537 79 296 0.0 0.0 0.00 0.00 0.00 99 1015.0
20260904091036 79 296 0.0 0.0 0.00 0.00 0.00 99 1014.8
20260904090532 79 296 0.0 0.0 0.00 0.00 0.00 99 1014.8
20260904090028 79 296 0.0 0.0 0.00 0.00 0.00 99 1014.9
20260904085522 79 296 0.0 0.0 0.00 0.00 0.00 99 1014.8
20260904085022 79 296 0.0 0.0 0.00 0.00 0.00 99 1014.8
20260904084518 79 296 0.0 0.0 0.00 0.00 0.00 99 1014.7
20260904084014 79 296 0.0 0.0 0.00 0.00 0.00 99 1015.1
20260904083510 79 296 0.0 0.0 0.00 0.00 0.00 99 1014.9
20260904083005 79 296 0.0 0.0 0.00 0.00 0.00 99 1014.9
20260904082500 79 296 0.0 0.0 0.00 0.00 0.00 99 1014.9
20260904081955 79 294 0.0 0.0 0.00 0.00 0.00 99 1014.5
20260904081450 79 296 0.0 0.0 0.00 0.00 0.00 99 1014.8
20260904080946 79 296 0.0 0.0 0.00 0.00 0.00 99 1014.7
20260904080441 79 296 0.0 0.0 0.00 0.00 0.00 99 1014.8
20260904075937 79 296 0.0 0.0 0.00 0.00 0.00 99 1014.7
20260904075433 79 296 0.0 0.0 0.00 0.00 0.00 99 1014.9
20260904074932 79 296 0.0 0.0 0.00 0.00 0.00 99 1014.8
20260904074427 79 296 0.0 0.0 0.00 0.00 0.00 99 1014.8
20260904073922 79 296 0.0 0.0 0.00 0.00 0.00 99 1014.9
20260904073418 79 296 0.0 0.0 0.00 0.00 0.00 99 1014.6
20260904072913 79 292 0.0 0.0 0.00 0.00 0.00 99 1014.7
20260904072409 79 297 0.0 0.0 0.00 0.00 0.00 99 1014.6
20260904071904 79 297 0.0 0.0 0.00 0.00 0.00 99 1014.7
20260904071359 79 297 0.0 0.0 0.00 0.00 0.00 99 1014.7
20260904070854 79 298 0.0 0.0 0.00 0.00 0.00 99 1014.5
20260904070352 79 298 0.0 0.0 0.00 0.00 0.00 99 1014.8
20260904065847 79 298 0.0 0.0 0.00 0.00 0.00 99 1014.9
20260904065344 79 298 0.0 0.0 0.00 0.00 0.00 99 1015.0
20260904064838 79 298 0.0 0.0 0.00 0.00 0.00 99 1015.1
20260904064334 79 298 0.0 0.0 0.00 0.00 0.00 99 1014.9
20260904063829 79 297 0.0 0.0 0.00 0.00 0.00 99 1015.0
20260904063326 79 297 0.0 0.0 0.00 0.00 0.00 99 1015.2
20260904062821 79 297 0.0 0.0 0.00 0.00 0.00 99 1015.1
20260904062317 79 297 0.0 0.0 0.00 0.00 0.00 99 1015.0
20260904061812 79 297 0.0 0.0 0.00 0.00 0.00 99 1015.2
20260904061309 79 297 0.0 0.0 0.00 0.00 0.00 99 1015.3
20260904060805 79 297 0.0 0.0 0.00 0.00 0.00 99 1015.2
20260904060301 79 297 0.0 0.0 0.00 0.00 0.00 99 1015.3
20260904055755 79 297 0.0 0.0 0.00 0.00 0.00 99 1015.3
20260904055256 79 297 0.0 0.0 0.00 0.00 0.00 99 1015.4
20260904054751 79 297 0.0 0.0 0.00 0.00 0.00 99 1015.6
20260904054247 79 297 0.0 0.0 0.00 0.00 0.00 99 1015.5
20260904053742 79 297 0.0 0.0 0.00 0.00 0.00 99 1015.4
20260904053241 79 297 0.0 0.0 0.00 0.00 0.00 99 1015.5
20260904052738 79 297 0.0 0.0 0.00 0.00 0.00 99 1015.4
20260904052233 79 297 0.0 0.0 0.00 0.00 0.00 99 1015.5
20260904051731 79 297 0.0 0.0 0.00 0.00 0.00 99 1015.7
20260904051230 79 297 0.0 0.0 0.00 0.00 0.00 99 1015.5
20260904050726 79 297 0.0 0.0 0.00 0.00 0.00 99 1015.4
20260904050222 79 297 0.0 0.0 0.00 0.00 0.00 99 1015.7
20260904045717 79 297 0.0 0.0 0.00 0.00 0.00 99 1015.6
20260904045212 79 297 0.0 0.0 0.00 0.00 0.00 99 1015.7
20260904044707 79 297 0.0 0.0 0.00 0.00 0.00 99 1015.5
20260904044203 79 297 0.0 0.0 0.00 0.00 0.00 99 1015.6
20260904043659 79 297 0.0 0.0 0.00 0.00 0.00 99 1015.5
20260904043155 79 297 0.0 0.0 0.00 0.00 0.00 99 1015.8
20260904042651 79 297 0.0 0.0 0.00 0.00 0.00 99 1015.8
20260904042146 79 297 0.0 0.0 0.00 0.00 0.00 99 1015.8
20260904041641 79 297 0.0 0.0 0.00 0.00 0.00 99 1015.7
20260904041138 79 297 0.0 0.0 0.00 0.00 0.00 99 1015.6
20260904040633 79 297 0.0 0.0 0.00 0.00 0.00 99 1015.9
20260904040129 79 296 0.0 0.0 0.00 0.00 0.00 99 1015.8
20260904035625 79 296 0.0 0.0 0.00 0.04 0.04 99 1015.7
20260904035125 79 296 0.0 0.0 0.00 0.04 0.04 99 1015.7
20260904034624 79 297 0.0 0.0 0.00 0.04 0.04 99 1015.8
20260904034120 79 297 0.0 0.0 0.00 0.04 0.04 99 1015.9
20260904033615 79 297 0.0 0.0 0.00 0.04 0.04 99 1015.8
20260904033113 79 297 0.0 0.0 0.00 0.04 0.04 99 1015.6
20260904032608 79 297 0.0 0.0 0.00 0.04 0.04 99 1015.6
20260904032107 79 297 0.0 0.0 0.00 0.04 0.04 99 1015.6
20260904031606 79 295 0.0 0.0 0.00 0.04 0.04 99 1015.7
20260904031102 79 294 0.0 0.0 0.00 0.04 0.04 99 1015.9
20260904030558 79 294 0.0 0.0 0.00 0.04 0.04 99 1015.9
20260904030053 79 295 0.0 0.0 0.00 0.04 0.04 99 1015.9
20260904025549 79 294 0.0 0.0 0.00 0.04 0.04 99 1016.1
20260904025043 79 294 0.0 0.0 0.00 0.04 0.04 99 1016.1
20260904024539 79 293 0.0 0.0 0.00 0.04 0.04 99 1015.9
20260904024035 79 275 0.0 0.0 0.00 0.04 0.04 99 1015.8
20260904023531 80 189 0.0 0.0 0.00 0.04 0.04 99 1015.8
20260904023026 79 152 2.0 2.0 0.00 0.04 0.04 99 1015.7
20260904022521 79 100 1.0 2.0 0.00 0.04 0.04 99 1015.9
20260904022018 79 149 0.0 1.0 0.00 0.04 0.04 99 1015.9
20260904021513 79 282 0.0 0.0 0.00 0.04 0.04 99 1016.0
20260904021008 79 283 0.0 0.0 0.00 0.04 0.04 99 1016.1
20260904020503 79 283 0.0 0.0 0.00 0.04 0.04 99 1016.1
20260904020002 79 286 0.0 0.0 0.00 0.04 0.04 99 1015.9
20260904015457 79 288 0.0 0.0 0.00 0.04 0.04 99 1016.0
20260904014956 79 288 0.0 0.0 0.00 0.04 0.04 99 1015.8
20260904014451 79 289 0.0 0.0 0.00 0.04 0.04 99 1015.9
20260904013947 79 289 0.0 0.0 0.00 0.04 0.04 99 1015.9
20260904013443 79 297 0.0 0.0 0.00 0.04 0.04 99 1016.1
20260904012939 79 296 0.0 0.0 0.00 0.04 0.04 99 1015.9
20260904012438 79 303 0.0 0.0 0.00 0.04 0.04 99 1016.2
20260904011933 79 304 0.0 0.0 0.00 0.04 0.04 99 1015.9
20260904011427 80 303 0.0 0.0 0.00 0.04 0.04 99 1015.7
20260904010923 80 306 0.0 0.0 0.00 0.04 0.04 99 1015.5
20260904010420 80 306 0.0 0.0 0.00 0.04 0.04 99 1015.4
20260904005920 80 312 0.0 0.0 0.00 0.04 0.04 99 1015.4
20260904005415 80 314 0.0 0.0 0.00 0.04 0.04 99 1015.5
20260904004910 80 302 0.0 0.0 0.00 0.04 0.04 99 1015.3
20260904004407 80 302 0.0 0.0 0.00 0.04 0.04 98 1015.3
20260904003907 80 302 0.0 0.0 0.00 0.04 0.04 98 1015.2
20260904003402 80 302 0.0 0.0 0.00 0.04 0.04 98 1015.3
20260904002857 80 302 0.0 0.0 0.00 0.04 0.04 97 1015.1
20260904002354 80 302 0.0 0.0 0.00 0.04 0.04 97 1015.4
20260904001852 80 302 0.0 0.0 0.00 0.04 0.04 97 1015.6
20260904001348 80 302 0.0 0.0 0.00 0.04 0.04 97 1015.3
20260904000843 80 302 0.0 0.0 0.00 0.04 0.04 97 1015.5